EHI
0 0 0 0 0 0 0 0 0 0 0 0 0 0 0 0 0 0 0 0 0 0 1 3 8 12 14 14 14 12 11 11 10 9 8 8 7 6 6 6 7 8 10 8 4 2 2 1 0
0 0 0 0 0 0 0 0 0 0 0 0 0 0 0 0 0 0 0 0 0 0 0 2 7 12 16 15 12 11 10 9 9 7 6 6 5 4 4 3 3 5 7 7 4 3 2 1 0
0 0 0 0 0 0 0 0 0 0 0 0 0 0 0 0 0 0 0 0 0 0 0 2 6 12 17 16 12 10 9 7 5 5 4 3 3 2 2 2 2 2 4 5 3 2 2 1 1
0 0 0 0 0 0 0 0 0 0 0 0 0 0 0 0 0 0 0 0 0 0 0 2 7 11 15 16 12 11 9 6 3 3 3 3 3 2 2 2 3 3 3 3 2 1 2 2 2
0 0 0 0 0 0 0 0 0 0 0 0 0 0 0 0 0 0 0 0 0 0 1 4 8 11 13 14 12 10 7 4 2 2 3 3 4 4 2 1 2 3 3 3 2 1 1 2 1
0 0 0 0 0 0 0 0 0 0 0 0 0 0 0 0 0 0 0 0 0 0 1 4 7 10 12 13 11 8 4 2 2 2 2 3 3 3 1 0 0 2 3 2 1 0 1 1 0
0 0 0 0 0 0 0 0 0 0 0 0 0 0 0 0 0 0 0 0 0 0 1 3 5 7 9 9 7 4 2 2 3 3 2 2 2 2 1 0 0 1 1 1 1 1 0 0 1
0 0 0 0 0 0 0 0 0 0 0 0 0 0 0 0 0 0 0 0 0 0 1 2 2 3 4 4 3 2 1 1 2 3 2 1 0 1 1 0 0 0 0 0 1 2 1 0 1
0 0 0 0 0 0 0 0 0 0 0 0 0 0 0 0 0 0 0 0 0 0 0 0 1 1 2 2 3 2 1 0 1 1 1 1 0 0 0 0 0 0 0 0 0 1 0 0 1
0 0 0 0 0 0 0 0 0 0 0 0 0 0 0 0 0 0 0 0 0 0 0 0 0 1 2 3 4 3 1 0 0 0 0 0 0 0 0 0 0 0 0 0 0 0 0 0 0
0 0 0 0 0 0 0 0 0 0 0 0 0 0 0 0 0 0 0 0 0 0 0 0 0 1 3 4 4 3 1 0 0 0 0 0 0 0 0 0 0 0 0 0 0 0 0 0 0
0 0 0 0 0 0 0 0 0 0 0 0 0 0 0 0 0 0 0 0 0 0 0 0 0 1 2 3 4 3 2 0 0 0 0 0 0 0 0 0 0 0 0 0 0 0 0 0 0
0 0 0 0 0 0 0 0 0 0 0 0 0 0 0 0 0 0 0 0 0 0 0 0 0 1 2 3 3 3 1 0 0 0 0 0 0 0 0 0 0 0 0 0 0 0 0 0 0
0 0 0 0 0 0 0 0 0 0 0 0 0 0 0 0 0 0 0 0 0 0 0 0 0 1 1 3 3 2 1 0 0 0 0 0 0 0 0 0 0 0 0 0 0 0 0 0 0
0 0 0 0 0 0 0 0 0 0 0 0 0 0 0 0 0 0 0 0 0 0 0 0 1 1 1 2 3 2 1 0 0 0 0 0 0 0 0 0 0 0 0 0 0 0 0 0 0
0 0 0 0 0 0 0 0 0 0 0 0 0 0 0 0 0 0 0 0 0 0 0 1 2 2 1 1 1 1 1 0 0 0 0 0 0 0 0 0 0 0 0 0 0 0 0 0 0
0 0 0 0 0 0 0 0 0 0 0 0 0 0 0 0 0 0 0 0 0 0 0 1 2 2 1 0 0 0 0 0 0 0 0 0 0 0 0 0 0 0 0 0 0 0 0 0 0
0 0 0 0 0 0 0 0 0 0 0 0 0 0 0 0 0 0 0 0 0 0 0 1 2 2 1 0 0 0 0 0 0 0 0 0 0 0 0 0 0 0 0 0 0 0 0 0 0
0 0 0 0 0 0 0 0 0 0 0 0 0 0 0 0 0 0 0 0 0 0 0 1 2 1 0 0 0 0 0 0 0 0 0 0 0 0 0 0 0 0 0 0 0 0 0 0 0
0 0 0 0 0 0 0 0 0 0 0 0 0 0 0 0 0 0 0 0 0 0 0 1 2 1 0 0 0 0 0 0 0 0 0 0 0 0 0 0 0 0 0 0 0 0 0 0 0
0 0 0 0 0 0 0 0 0 0 0 0 0 0 0 0 0 0 0 0 0 0 0 1 1 1 0 0 0 0 0 0 0 0 0 0 0 0 0 0 0 0 0 0 0 0 0 0 0
0 0 0 0 0 0 0 0 0 0 0 0 0 0 0 0 0 0 0 0 0 0 0 0 1 1 1 0 0 0 0 0 0 0 0 0 0 0 0 0 0 0 0 0 0 0 0 0 0
0 0 0 0 0 0 0 0 0 0 0 0 0 0 0 0 0 0 0 0 0 0 0 0 1 2 1 0 0 0 0 0 0 0 0 0 0 0 0 0 0 0 0 0 0 0 0 0 0
0 0 0 0 0 0 0 0 0 0 0 0 0 0 0 0 0 0 0 0 0 0 0 0 1 2 2 1 0 0 0 0 0 0 0 0 0 0 0 0 0 0 0 0 0 0 0 0 0
0 0 0 0 0 0 0 0 0 0 0 0 0 0 0 0 0 0 0 0 0 0 0 0 1 3 2 1 0 0 0 0 0 0 0 0 0 0 0 0 0 0 0 0 0 0 0 0 0
0 0 0 0 0 0 0 0 0 0 0 0 0 0 0 0 0 0 0 0 0 0 0 0 1 2 2 1 0 0 0 0 0 0 0 0 0 0 0 0 0 0 0 0 0 0 0 0 0
0 0 0 0 0 0 0 0 0 0 0 0 0 0 0 0 0 0 0 0 0 0 0 0 1 1 2 1 0 0 0 0 0 0 0 0 0 0 0 0 0 0 0 0 0 0 0 0 0
0 0 0 0 0 0 0 0 0 0 0 0 0 0 0 0 0 0 0 0 0 0 0 0 0 1 1 1 0 0 0 0 0 0 0 0 0 0 0 0 0 0 0 0 0 0 0 0 0
0 0 0 0 0 0 0 0 0 0 0 0 0 0 0 0 0 0 0 0 0 0 0 0 0 1 1 0 0 0 0 0 0 0 0 0 0 0 0 0 0 0 0 0 0 0 0 0 0
0 0 0 0 0 0 0 0 0 0 0 0 0 0 0 0 0 0 0 0 0 0 0 0 0 1 0 0 0 0 0 0 0 0 0 0 0 0 0 0 0 0 0 0 0 0 0 0 0
Wind_Speed
6 4 2 4 5 4 3 4 2 0 1 0 2 7 7 5 3 5 3 2 2 2 1 3 5 6 7 7 7 6 6 5 5 5 5 5 5 4 5 5 6 6 6 6 7 7 7 8 8
2 2 4 5 5 2 4 4 3 2 3 2 3 5 6 4 3 5 1 0 3 3 2 3 5 6 6 6 6 5 5 4 4 4 4 4 4 4 4 4 5 5 6 6 6 7 7 7 8
2 1 4 4 3 5 4 3 4 2 1 2 3 4 5 4 3 3 2 2 4 3 2 3 6 5 5 5 4 4 4 4 3 3 3 3 3 3 3 3 3 4 4 5 5 6 6 7 7
3 4 4 3 3 4 4 3 2 2 3 4 4 4 4 2 3 3 2 4 5 3 2 3 6 5 5 5 4 4 4 4 3 2 2 2 2 2 2 2 2 3 4 5 5 6 6 7 7
4 4 3 1 4 3 3 3 1 2 2 2 4 4 2 2 2 3 4 5 5 3 2 3 7 6 5 5 4 3 3 3 3 2 1 1 1 1 1 2 2 2 4 4 5 6 6 6 7
4 4 4 3 4 2 2 2 1 2 2 2 3 4 1 1 2 3 4 4 4 3 2 3 6 6 6 6 5 4 3 2 2 2 2 1 1 0 1 2 2 2 2 4 5 5 6 6 6
4 4 4 4 3 2 2 1 2 3 3 1 3 4 1 1 1 3 4 4 4 3 3 2 2 3 5 5 5 5 4 3 2 2 2 2 2 1 1 2 2 1 2 2 4 4 5 5 6
4 4 2 2 3 3 1 2 2 3 1 1 3 6 4 4 2 4 4 4 4 3 2 2 2 2 1 1 3 5 5 5 4 3 3 3 2 2 2 2 2 2 2 2 3 4 4 5 5
4 4 2 3 3 3 0 2 2 1 2 2 1 3 4 3 3 4 3 3 3 3 2 1 1 2 2 1 3 3 3 4 4 2 3 2 1 1 2 2 2 3 2 2 2 3 3 3 3
4 3 4 2 2 2 0 1 0 2 2 1 1 1 2 3 3 3 2 1 1 1 1 1 1 1 2 2 1 1 1 1 2 1 1 1 1 1 2 3 3 3 3 3 3 3 3 2 1
4 5 3 1 1 1 1 1 0 2 2 4 4 3 2 2 1 1 1 2 2 1 1 1 1 1 1 1 1 1 1 1 1 2 1 1 1 1 1 1 2 3 3 2 2 2 1 1 1
3 2 3 2 0 1 0 0 1 3 6 5 6 5 3 3 3 3 3 2 2 1 2 2 1 1 1 1 1 1 1 1 1 2 2 1 1 1 2 2 2 2 2 2 2 1 2 2 2
3 2 1 2 1 1 1 3 3 5 6 4 3 3 4 4 4 3 4 3 2 2 2 2 2 2 2 1 2 2 2 2 3 2 3 3 2 2 2 2 2 2 2 2 2 2 3 2 2
2 1 1 2 2 2 3 4 3 8 5 3 4 5 5 5 5 3 3 2 2 3 3 2 2 2 2 2 2 2 3 3 3 3 4 4 3 3 3 3 3 3 3 3 3 3 3 3 3
2 1 3 3 3 2 1 5 7 8 4 4 5 5 5 5 4 5 5 4 3 3 3 3 3 2 2 3 3 3 3 3 3 3 4 4 4 4 4 3 3 4 4 4 3 3 3 3 2
2 2 3 4 3 3 3 7 6 5 5 6 6 5 5 5 5 5 5 4 4 3 3 4 3 3 3 4 4 3 3 3 3 3 3 5 5 5 4 4 4 4 4 4 3 4 3 3 3
1 2 4 4 3 3 4 8 5 3 6 7 6 5 5 5 5 5 5 4 4 4 4 4 3 3 4 4 3 3 3 3 3 3 4 5 5 5 4 4 4 4 4 4 4 4 4 3 3
5 4 4 5 3 2 4 9 9 4 6 7 6 6 5 6 7 6 5 4 4 3 3 4 4 4 3 3 2 2 3 3 3 3 4 5 5 5 4 4 5 4 4 4 4 4 4 4 3
4 3 4 5 2 3 7 11 11 6 5 7 7 6 6 7 6 5 4 4 3 3 3 3 3 3 2 2 2 3 3 3 3 4 5 6 5 5 5 5 5 5 5 6 5 4 4 3 3
3 3 4 4 2 3 6 11 10 7 7 7 8 7 6 5 4 4 3 3 3 4 4 4 4 4 4 3 3 3 4 3 4 3 4 5 6 6 5 5 5 5 5 6 6 4 3 3 3
4 5 4 4 4 2 4 8 5 4 4 4 4 5 5 6 6 5 4 4 4 4 5 4 5 4 4 4 2 2 2 2 3 3 3 4 5 6 5 6 5 5 5 6 6 6 5 4 3
5 4 4 2 1 3 0 5 7 3 3 4 4 4 5 5 5 5 5 5 5 6 4 4 5 4 4 3 3 3 4 4 4 4 4 4 5 5 6 6 5 6 5 6 6 6 5 6 5
5 1 1 1 1 3 2 3 10 1 4 6 5 6 6 5 5 5 5 5 5 5 4 4 4 4 4 3 3 3 4 4 3 4 5 5 4 5 5 5 5 5 5 5 6 6 6 5 5
3 3 3 3 3 3 5 5 9 5 6 5 5 5 5 5 5 5 5 4 4 3 3 3 3 4 4 4 3 3 5 5 4 4 4 4 3 3 4 4 4 4 4 5 6 6 7 5 5
3 5 3 4 2 7 2 4 11 7 6 5 6 6 5 4 4 4 4 4 4 4 3 4 3 4 4 4 4 4 5 5 5 5 4 4 3 3 4 4 4 4 4 4 4 4 5 6 6
4 6 6 5 5 5 2 7 9 5 3 3 3 3 3 4 4 4 5 4 4 4 4 4 4 5 4 4 4 4 4 4 4 5 4 4 4 4 4 4 4 4 4 4 4 3 4 4 5
5 4 4 5 1 3 6 7 8 2 2 2 2 2 4 4 4 5 5 4 4 4 5 4 4 4 4 4 4 4 4 4 4 5 4 4 3 3 4 4 4 4 4 4 4 3 4 4 4
4 6 4 4 4 4 6 6 6 5 5 4 3 4 5 4 4 5 4 4 4 4 4 4 4 4 4 4 4 4 4 4 4 3 3 3 4 4 3 3 3 3 3 3 4 4 4 4 4
5 4 4 3 4 4 4 8 6 6 5 4 5 5 4 5 5 5 4 4 3 3 3 3 3 3 3 3 3 3 3 3 3 2 3 3 2 3 3 3 3 3 3 3 3 3 3 4 3
5 6 7 5 5 4 3 10 4 3 3 3 4 4 4 4 4 4 3 3 3 3 3 3 3 3 3 3 3 3 3 2 2 2 2 2 2 2 2 3 3 3 3 3 3 3 3 4 4
Wind_Direction
345 350 68 61 62 59 239 250 238 157 88 45 93 102 105 97 111 145 205 242 134 111 99 81 70 71 74 75 72 71 77 80 81 88 102 106 116 125 132 144 152 153 153 154 156 155 148 144 144
357 9 60 64 96 148 255 251 212 212 180 144 85 87 83 76 83 113 182 243 115 105 89 72 62 65 68 73 72 69 72 77 78 76 92 108 114 124 135 145 153 157 157 155 154 154 151 150 149
349 82 86 85 140 188 212 222 189 169 63 99 71 62 89 112 120 138 196 146 101 91 76 64 58 56 57 64 72 71 68 69 73 75 78 104 120 125 132 139 150 155 159 160 158 157 157 160 159
56 58 62 91 218 233 205 214 190 116 42 45 89 63 59 56 147 164 152 113 96 81 65 61 55 52 51 53 57 66 67 60 55 67 76 81 117 131 143 142 152 161 163 160 161 161 164 165 165
65 82 90 181 234 246 224 239 210 107 89 40 87 89 54 346 90 115 99 97 99 87 60 57 51 49 48 44 42 50 60 54 42 36 38 52 83 137 146 158 154 163 167 166 166 165 168 173 174
64 78 117 206 229 233 264 272 119 90 98 69 91 102 140 299 90 96 88 89 99 101 69 52 49 46 41 37 30 28 35 41 34 21 357 343 1 123 176 179 172 158 165 168 170 173 175 178 179
110 119 177 201 199 207 237 16 101 115 89 106 124 116 174 277 152 103 89 84 77 78 70 43 35 38 39 33 22 17 14 6 2 5 342 330 329 317 231 200 199 190 177 177 174 177 185 187 185
130 117 204 220 189 204 267 45 79 108 126 359 102 137 186 225 174 96 75 67 60 62 65 49 27 22 4 346 4 7 4 359 346 344 347 341 320 308 290 244 226 215 200 185 181 183 189 197 195
98 90 206 223 188 191 60 70 359 43 85 31 47 159 184 166 111 82 65 43 41 33 26 35 25 1 343 327 345 354 343 344 344 334 331 332 277 255 271 270 253 226 216 209 205 201 196 199 199
99 159 216 223 186 169 80 95 293 51 45 29 18 20 87 107 107 111 121 108 46 340 344 15 6 348 348 332 335 305 303 302 305 295 278 280 283 274 287 277 252 238 227 225 231 220 197 181 203
154 190 204 234 197 126 81 352 2 133 226 206 192 184 162 143 134 145 181 190 207 220 275 304 305 314 332 313 291 278 283 278 283 278 268 265 262 263 274 252 233 219 216 204 220 214 204 187 204
166 225 193 208 179 102 179 252 293 204 221 211 194 184 182 186 197 195 197 216 224 222 244 259 271 286 273 268 266 250 250 263 258 255 252 238 245 245 242 234 226 204 201 205 203 206 207 200 206
195 226 205 207 196 213 233 240 246 245 240 228 210 201 194 201 215 211 193 210 227 239 246 248 250 258 269 271 264 263 244 242 243 242 246 234 230 237 235 235 223 212 201 199 207 203 202 207 215
189 199 262 252 244 245 240 263 236 250 232 208 202 215 220 214 211 207 206 221 240 244 252 247 244 245 249 258 258 255 248 243 241 236 241 235 226 224 227 229 224 215 203 199 204 209 202 206 210
91 32 312 253 212 216 181 272 233 238 211 211 218 224 228 226 215 207 208 212 224 238 247 247 249 243 245 254 255 258 249 242 240 240 238 238 232 221 220 222 228 221 207 201 204 211 200 208 214
63 61 285 267 182 178 157 258 252 225 193 215 226 231 232 234 225 220 215 216 221 229 246 255 269 262 253 256 256 253 250 244 242 243 239 240 237 224 220 220 229 227 209 198 200 201 196 204 207
53 207 238 273 200 174 192 251 267 226 199 217 225 229 235 244 240 232 226 222 225 228 244 260 261 253 255 261 264 261 250 247 244 241 239 239 236 229 222 225 225 225 213 206 211 204 192 197 209
201 210 231 239 230 187 232 260 272 255 213 222 225 233 236 237 240 235 230 231 232 234 243 254 260 258 259 269 277 275 267 255 246 241 240 238 233 230 229 229 222 218 215 209 208 206 199 191 196
175 192 242 251 233 220 248 265 271 259 231 230 233 232 233 238 243 235 229 235 238 247 253 258 260 269 274 275 263 264 264 257 251 247 243 240 236 232 231 238 224 216 215 210 205 195 197 190 169
215 235 258 282 284 240 268 274 267 245 224 219 220 223 228 239 250 249 248 249 248 247 254 262 256 262 264 251 245 242 253 253 251 251 249 242 239 232 236 230 227 221 216 209 201 187 188 193 173
226 215 229 251 315 309 301 297 273 250 218 215 218 217 223 220 227 240 249 252 257 255 253 260 257 258 261 254 268 280 273 267 264 263 255 250 244 235 231 232 227 227 216 207 200 195 188 192 190
231 218 204 225 338 292 150 287 285 254 244 234 234 235 238 237 234 238 244 254 254 252 254 257 256 255 256 248 255 261 263 262 262 260 257 259 248 243 235 231 226 226 222 211 202 200 192 184 190
201 189 162 206 182 298 250 231 281 272 249 249 241 237 239 236 228 233 241 246 254 247 252 259 261 264 256 247 244 251 265 264 262 260 262 258 253 245 241 230 224 224 223 217 207 197 197 192 192
145 64 43 41 71 273 226 194 271 236 227 247 243 241 246 245 241 244 252 257 266 258 260 264 267 274 263 254 251 247 259 270 272 272 266 260 256 250 242 232 223 225 224 215 210 202 200 201 196
110 99 45 357 342 250 214 210 250 245 228 220 231 242 252 248 238 252 262 264 270 272 270 269 267 279 274 264 262 254 255 258 255 260 260 260 256 255 243 236 220 221 221 215 210 204 206 201 196
173 152 163 198 227 272 256 235 252 252 248 242 241 246 257 253 243 246 249 244 254 266 270 266 265 272 272 265 268 261 256 253 252 252 248 251 248 243 239 233 223 224 218 216 202 201 210 207 203
152 186 169 138 194 275 267 276 296 254 326 305 279 277 257 248 247 250 254 248 251 262 268 259 257 269 271 263 263 266 260 251 252 255 248 248 250 243 230 228 226 225 219 211 197 203 206 203 207
153 148 121 139 168 252 280 263 248 255 270 285 270 258 259 254 252 254 252 256 259 259 266 262 252 256 263 265 259 261 260 254 250 252 252 250 247 236 221 219 220 225 216 205 203 199 198 198 206
159 164 151 145 173 178 260 268 227 222 229 241 250 253 252 249 248 248 257 265 269 275 274 278 272 276 276 270 267 272 274 264 252 248 252 249 248 230 218 215 217 223 220 209 202 201 191 193 210
182 180 158 166 214 196 218 268 267 233 236 239 261 267 264 253 253 254 263 275 282 282 282 279 276 277 276 273 268 266 272 276 273 272 267 256 247 229 215 206 209 218 217 206 199 200 197 195 210